Notices

What's New in latest Release from April 7th, 2021:

- Updated Glossary, including Speed of Maximum Gust, and Total Hourly Precipitation

- Updated national and regional climate services offices contacts and prices information

- Addition of station inventory lists for 1981-2010, 1971-2000, and 1961-1990 Normals.

If you haven't already, please take our survey and provide feedback about our website: https://eccc.sondage-survey.ca/f/LanguageSelection.aspx?s=442ca660-fcf1-47c0-95a9-59707d6fd709

Hourly Data Report for January 27, 2017

TORONTO CITY
ONTARIO

43°40'00.000" N
79°24'00.000" W
112.50 m
6158355
71508
XTO

Download Data

Hourly Data (January 2017)
Hourly Data Report for January 27, 2017
TIME
LST
Temp Definition
°C
Dew Point Definition
°C
Rel Hum Definition
%
Precip. Amount Definition
mm

Wind Dir Definition
10's deg

Wind Spd Definition
km/h
Visibility Definition
km
Stn Press Definition
kPa
Hmdx Definition


Wind Chill Definition


Weather Definition


00:00 1.9 -3.5 67 0.0 LegendMM LegendMM   98.88     LegendNANA
01:00 1.5 -4.8 63 0.0 LegendMM LegendMM   98.87     LegendNANA
02:00 1.1 -4.7 66 0.0 LegendMM LegendMM   98.92     LegendNANA
03:00 0.7 -4.9 66 0.0 LegendMM LegendMM   98.92     LegendNANA
04:00 0.5 -5.7 63 0.0 LegendMM LegendMM   98.90     LegendNANA
05:00 0.3 -6.3 61 0.0 LegendMM LegendMM   98.87     LegendNANA
06:00 0.3 -6.1 62 0.0 LegendMM LegendMM   98.88     LegendNANA
07:00 0.3 -5.7 64 0.0 LegendMM LegendMM   98.92     LegendNANA
08:00 0.0 -4.2 73 0.0 LegendMM LegendMM   98.94     LegendNANA
09:00 0.5 -3.1 77 0.0 LegendMM LegendMM   98.97     LegendNANA
10:00 1.5 -3.4 70 0.0 LegendMM LegendMM   98.95     LegendNANA
11:00 1.9 -4.0 65 0.0 LegendMM LegendMM   98.94     LegendNANA
12:00 1.7 -3.2 70 0.0 LegendMM LegendMM   98.91     LegendNANA
13:00 1.6 -4.7 63 0.0 LegendMM LegendMM   98.83     LegendNANA
14:00 1.2 -3.4 71 0.2 LegendMM LegendMM   98.79     LegendNANA
15:00 1.5 -3.1 71 0.0 LegendMM LegendMM   98.78     LegendNANA
16:00 1.8 -4.1 65 0.0 LegendMM LegendMM   98.78     LegendNANA
17:00 1.6 -5.3 60 0.0 LegendMM LegendMM   98.82     LegendNANA
18:00 1.1 -5.0 64 0.0 LegendMM LegendMM   98.88     LegendNANA
19:00 1.1 -5.0 64 0.0 LegendMM LegendMM   98.90     LegendNANA
20:00 0.4 -3.5 75 0.0 LegendMM LegendMM   98.92     LegendNANA
21:00 0.4 -4.4 70 0.0 LegendMM LegendMM   98.92     LegendNANA
22:00 0.2 -4.7 70 0.0 LegendMM LegendMM   98.90     LegendNANA
23:00 0.1 -4.8 70 0.0 LegendMM LegendMM   98.90     LegendNANA

Notes on Data Quality.

Legend

  • E = Estimated
  • M = Missing
  • NA = Not Available*
  • [empty] = Indicates an unobserved value
Date modified: